TimeEDT,TemperatureF,Dew PointF,Humidity,Sea Level PressureIn,VisibilityMPH,Wind Direction,Wind SpeedMPH,Gust SpeedMPH,PrecipitationIn,Events,Conditions,WindDirDegrees,DateUTC
12:54 AM,70.0,66.9,90,29.55,8.0,SSW,11.5,-,N/A,,Overcast,200,2013-06-29 04:54:00
1:43 AM,71.6,68.0,88,29.54,8.0,SSW,10.4,-,N/A,,Overcast,200,2013-06-29 05:43:00
1:54 AM,71.1,68.0,90,29.53,8.0,SSW,9.2,-,N/A,,Overcast,200,2013-06-29 05:54:00
2:54 AM,71.1,68.0,90,29.52,8.0,SSW,9.2,-,N/A,,Overcast,200,2013-06-29 06:54:00
3:54 AM,70.0,68.0,93,29.53,8.0,SSW,8.1,-,N/A,,Overcast,200,2013-06-29 07:54:00
4:54 AM,71.1,69.1,93,29.54,7.0,SSW,9.2,-,N/A,,Overcast,200,2013-06-29 08:54:00
5:54 AM,70.0,69.1,97,29.55,1.5,South,9.2,-,0.01,Rain,Light Rain,190,2013-06-29 09:54:00
6:26 AM,71.6,69.8,94,29.55,5.0,SSW,8.1,-,0.06,Rain,Light Rain,200,2013-06-29 10:26:00
6:33 AM,69.8,69.8,100,29.55,5.0,SSW,6.9,-,0.06,,Mostly Cloudy,200,2013-06-29 10:33:00
6:54 AM,71.1,69.1,93,29.56,10.0,SSW,6.9,-,0.06,,Clear,210,2013-06-29 10:54:00
7:10 AM,73.4,69.8,88,29.56,10.0,SW,8.1,-,N/A,,Scattered Clouds,220,2013-06-29 11:10:00
7:21 AM,73.4,69.8,88,29.56,10.0,SSW,9.2,-,N/A,,Mostly Cloudy,210,2013-06-29 11:21:00
7:54 AM,72.0,70.0,93,29.57,10.0,South,8.1,-,N/A,,Overcast,190,2013-06-29 11:54:00
8:47 AM,71.6,69.8,94,29.59,10.0,SSW,10.4,-,N/A,,Overcast,200,2013-06-29 12:47:00
8:54 AM,73.0,69.1,87,29.59,10.0,SSW,10.4,-,N/A,,Overcast,200,2013-06-29 12:54:00
9:54 AM,73.9,68.0,82,29.60,10.0,SSW,10.4,-,N/A,,Overcast,210,2013-06-29 13:54:00
10:54 AM,73.9,68.0,82,29.58,10.0,SSW,10.4,-,N/A,,Overcast,200,2013-06-29 14:54:00
11:54 AM,75.0,68.0,79,29.60,10.0,SSW,13.8,-,N/A,,Overcast,200,2013-06-29 15:54:00
12:54 PM,79.0,69.1,72,29.60,10.0,SSW,12.7,-,N/A,,Overcast,200,2013-06-29 16:54:00
1:54 PM,80.1,68.0,67,29.59,10.0,SSW,15.0,-,N/A,,Mostly Cloudy,200,2013-06-29 17:54:00
2:54 PM,82.0,66.9,60,29.59,10.0,South,16.1,-,N/A,,Mostly Cloudy,190,2013-06-29 18:54:00
3:54 PM,81.0,66.0,60,29.60,10.0,South,18.4,-,N/A,,Mostly Cloudy,190,2013-06-29 19:54:00
4:54 PM,81.0,64.9,58,29.62,10.0,SSW,21.9,26.5,N/A,,Scattered Clouds,200,2013-06-29 20:54:00
5:54 PM,79.0,64.9,62,29.63,10.0,SSW,15.0,24.2,N/A,,Scattered Clouds,200,2013-06-29 21:54:00
6:54 PM,78.1,64.9,64,29.63,10.0,SSW,18.4,26.5,N/A,,Scattered Clouds,200,2013-06-29 22:54:00
7:54 PM,75.0,66.0,73,29.65,10.0,SSW,16.1,-,N/A,,Scattered Clouds,200,2013-06-29 23:54:00
8:54 PM,73.0,66.9,81,29.68,10.0,SSW,13.8,-,N/A,,Scattered Clouds,200,2013-06-30 00:54:00
9:54 PM,71.1,66.9,87,29.70,10.0,SSW,12.7,-,N/A,,Scattered Clouds,200,2013-06-30 01:54:00
10:54 PM,71.1,66.9,87,29.72,10.0,SSW,10.4,-,N/A,,Scattered Clouds,200,2013-06-30 02:54:00
11:48 PM,71.6,66.2,83,29.73,10.0,SSW,10.4,-,N/A,,Mostly Cloudy,200,2013-06-30 03:48:00
11:54 PM,71.1,66.9,87,29.73,10.0,SSW,10.4,-,N/A,,Mostly Cloudy,200,2013-06-30 03:54:00